Location: Bazugues
(43.4465°N, 0.3432°E)
Time: 14:31:54
(UTC+00:00)

Cosmos 2218 Rocket - Pass Details

Date: 12 January 2026
Orbit: 955 x 1005 km, 82.9° (Epoch: 17 February)

Event Time Altitude Azimuth Distance (km) Brightness Sun altitude
Rises 17:44:32 0° 355° (N) 3,742 6.9 -10.7°
Reaches altitude 10° 17:47:08 10° 359° (N) 2,789 6.2 -11.2°
Maximum altitude 17:53:28 59° 78° (ENE) 1,155 4.1 -12.3°
Drops below altitude 10° 17:59:44 10° 158° (SSE) 2,763 6.3 -13.4°
Sets 18:02:17 0° 162° (SSE) 3,704 7.0 -13.8°
